GW7052 Weather Reports


time (UTC)temp
C
wind
direction
speed
KPH
gust
KPH
rain 1hr
cm
rain 24hr
cm
rain mn
cm
humidity
%
barometer
mb
20260503184813 25 6 1.6 4.8 0.00 0.00 0.00 41 1012.2
20260503184310 25 26 8.0 14.5 0.00 0.00 0.00 38 1012.2
20260503183805 24 193 3.2 9.7 0.00 0.00 0.00 41 1012.4
20260503183303 23 10 4.8 11.3 0.00 0.00 0.00 42 1012.3
20260503182800 24 15 9.7 12.9 0.00 0.00 0.00 41 1012.5
20260503182300 23 353 3.2 6.4 0.00 0.00 0.00 44 1012.6
20260503181756 23 15 8.0 12.9 0.00 0.00 0.00 43 1012.3
20260503181253 23 60 3.2 4.8 0.00 0.00 0.00 45 1012.4
20260503180749 23 133 0.0 3.2 0.00 0.00 0.00 46 1012.5
20260503180248 23 52 1.6 6.4 0.00 0.00 0.00 47 1012.5
20260503175743 22 337 1.6 6.4 0.00 0.00 0.00 50 1012.7
20260503175242 22 21 6.4 6.4 0.00 0.00 0.00 48 1012.6
20260503174737 22 353 6.4 11.3 0.00 0.00 0.00 49 1012.7
20260503174236 22 25 4.8 9.7 0.00 0.00 0.00 49 1012.7
20260503173736 22 12 4.8 4.8 0.00 0.00 0.00 50 1012.7
20260503173232 22 13 8.0 9.7 0.00 0.00 0.00 50 1013.0
20260503172729 21 18 1.6 6.4 0.00 0.00 0.00 52 1012.7
20260503172226 21 37 9.7 12.9 0.00 0.00 0.00 53 1012.8
20260503171723 21 50 4.8 9.7 0.00 0.00 0.00 53 1012.9
20260503171220 21 2 1.6 11.3 0.00 0.00 0.00 54 1013.1
20260503170717 20 28 3.2 9.7 0.00 0.00 0.00 55 1013.0
20260503170214 20 5 6.4 11.3 0.00 0.00 0.00 57 1012.8
20260503160135 18 34 0.0 3.2 0.00 0.00 0.00 71 1013.1
20260503150605 15 43 6.4 9.7 0.00 0.00 0.00 78 1013.5
20260503130955 12 15 1.6 1.6 0.00 0.00 0.00 93 1013.2
20260503130453 12 15 1.6 3.2 0.00 0.00 0.00 92 1012.9
20260503110349 12 111 1.6 3.2 0.00 0.00 0.00 95 1013.2
20260503090240 12 114 1.6 1.6 0.00 0.00 0.00 94 1013.8
20260503081208 13 114 1.6 1.6 0.00 0.00 0.00 92 1013.9
20260503080704 13 114 0.0 0.0 0.00 0.00 0.00 91 1013.8
20260503080201 13 114 0.0 0.0 0.00 0.00 0.00 91 1013.9
20260503072637 13 114 0.0 0.0 0.00 0.00 0.00 90 1013.5
20260503072134 13 114 0.0 0.0 0.00 0.00 0.00 89 1013.9
20260503071631 13 114 0.0 0.0 0.00 0.00 0.00 89 1013.8
20260503071128 13 114 0.0 0.0 0.00 0.00 0.00 88 1013.9
20260503070625 14 114 0.0 0.0 0.00 0.00 0.00 87 1013.9
20260503070123 14 114 0.0 0.0 0.00 0.00 0.00 87 1013.9
20260503055043 15 114 0.0 0.0 0.00 0.03 0.03 82 1013.8
20260503054539 15 110 1.6 1.6 0.00 0.03 0.03 82 1014.0
20260503054037 15 84 0.0 0.0 0.00 0.03 0.03 81 1013.8
20260503053535 15 84 1.6 1.6 0.00 0.03 0.03 81 1013.9
20260503053032 15 84 0.0 0.0 0.00 0.03 0.03 81 1013.9
20260503052529 15 84 1.6 1.6 0.00 0.03 0.03 80 1013.8
20260503052025 15 84 1.6 3.2 0.00 0.03 0.03 80 1013.8
20260503051521 16 84 0.0 0.0 0.00 0.03 0.03 79 1013.6
20260503051019 16 84 0.0 1.6 0.00 0.03 0.03 79 1013.8
20260503050514 16 84 0.0 1.6 0.00 0.03 0.03 78 1013.8
20260503050012 16 19 1.6 1.6 0.00 0.03 0.03 79 1013.7
20260503045509 16 331 3.2 3.2 0.00 0.03 0.03 80 1013.6
20260503045006 16 25 1.6 1.6 0.00 0.03 0.03 79 1013.8
20260503044502 16 28 3.2 4.8 0.00 0.03 0.03 79 1014.1
20260503044000 16 26 1.6 4.8 0.00 0.03 0.03 79 1014.0
20260503043456 16 31 0.0 0.0 0.00 0.03 0.03 79 1013.8
20260503042953 16 31 0.0 1.6 0.00 0.03 0.03 78 1013.6
20260503042449 16 30 0.0 3.2 0.00 0.03 0.03 78 1013.5
20260503041946 16 31 1.6 1.6 0.00 0.03 0.03 78 1013.2
20260503041443 16 28 0.0 0.0 0.00 0.03 0.03 78 1013.4
20260503040941 16 28 0.0 1.6 0.00 0.03 0.03 77 1013.4
20260503040437 16 27 3.2 3.2 0.00 0.03 0.03 76 1013.5
20260503035935 16 224 0.0 1.6 0.00 0.03 0.03 76 1013.9
20260503035431 16 224 1.6 1.6 0.00 0.03 0.03 76 1013.5
20260503034929 16 223 1.6 1.6 0.00 0.03 0.03 76 1013.7
20260503034427 16 222 3.2 3.2 0.00 0.03 0.03 76 1013.6
20260503033923 16 221 1.6 1.6 0.00 0.03 0.03 76 1013.6
20260503033421 17 220 0.0 1.6 0.00 0.03 0.03 75 1013.8
20260503032919 17 220 0.0 0.0 0.00 0.03 0.03 75 1013.5
20260503032417 17 220 0.0 0.0 0.00 0.03 0.03 74 1013.3
20260503031914 17 220 0.0 1.6 0.00 0.03 0.03 74 1013.6
20260503031412 17 220 1.6 1.6 0.00 0.03 0.03 74 1013.5
20260503030908 17 220 1.6 1.6 0.00 0.03 0.03 73 1013.1
20260503030405 17 220 0.0 1.6 0.00 0.03 0.03 72 1013.4
20260503025901 17 273 1.6 1.6 0.00 0.03 0.03 72 1013.2
20260503025359 17 219 1.6 1.6 0.00 0.03 0.03 72 1013.3
20260503024856 17 219 3.2 3.2 0.00 0.03 0.03 72 1013.3
20260503024353 18 219 3.2 3.2 0.00 0.03 0.03 70 1013.4
20260503023849 18 219 1.6 3.2 0.00 0.03 0.03 68 1013.5
20260503023346 18 219 0.0 0.0 0.00 0.03 0.03 69 1013.7
20260503022843 18 219 0.0 1.6 0.00 0.03 0.03 68 1013.6
20260503022338 18 219 0.0 1.6 0.00 0.03 0.03 68 1013.6
20260503021834 18 212 0.0 3.2 0.00 0.03 0.03 67 1013.9
20260503021330 18 211 3.2 3.2 0.00 0.03 0.03 67 1013.8
20260503020828 18 191 1.6 1.6 0.00 0.03 0.03 67 1013.8
20260503020326 18 186 1.6 4.8 0.00 0.03 0.03 66 1013.8
20260503015822 20 174 4.8 4.8 0.00 0.03 0.03 64 1013.8
20260503015319 20 209 0.0 0.0 0.00 0.03 0.03 63 1013.5
20260503014815 20 209 1.6 1.6 0.00 0.03 0.03 61 1013.1
20260503014313 21 209 0.0 1.6 0.00 0.03 0.03 60 1013.0
20260503013810 21 209 0.0 0.0 0.00 0.03 0.03 60 1012.8
20260503013307 21 209 0.0 0.0 0.00 0.03 0.03 59 1012.7
20260503012804 21 209 0.0 1.6 0.00 0.03 0.03 59 1012.8
20260503012305 21 209 0.0 1.6 0.00 0.03 0.03 58 1012.9
20260503011758 21 209 0.0 1.6 0.00 0.03 0.03 59 1012.9
20260503011255 21 209 0.0 0.0 0.00 0.03 0.03 59 1012.9
20260503010751 21 209 0.0 0.0 0.00 0.03 0.03 58 1012.8
20260503010249 21 209 1.6 1.6 0.00 0.03 0.03 57 1012.6
20260503005746 21 209 1.6 1.6 0.00 0.03 0.03 56 1012.7
20260503005243 21 209 1.6 1.6 0.00 0.03 0.03 58 1012.8
20260503004739 21 203 0.0 1.6 0.00 0.03 0.03 56 1012.7
20260503004237 21 199 0.0 1.6 0.00 0.03 0.03 56 1012.9
20260503003734 21 200 1.6 3.2 0.00 0.03 0.03 57 1012.8
20260503003231 21 205 1.6 1.6 0.00 0.03 0.03 56 1012.7
20260503002728 22 205 1.6 1.6 0.00 0.03 0.03 55 1012.7
20260503002225 22 206 0.0 1.6 0.00 0.03 0.03 56 1012.6
20260503001721 21 206 0.0 0.0 0.00 0.03 0.03 55 1012.6
20260503001218 21 218 4.8 4.8 0.00 0.03 0.03 55 1012.7
20260503000716 21 218 0.0 0.0 0.00 0.03 0.03 55 1012.6
20260503000213 21 215 0.0 3.2 0.00 0.03 0.03 55 1012.7
20260502235709 21 216 0.0 3.2 0.00 0.03 0.03 55 1012.7
20260502235208 21 205 1.6 1.6 0.00 0.03 0.03 55 1012.8
20260502234703 21 204 1.6 1.6 0.00 0.03 0.03 56 1012.9
20260502234201 21 205 0.0 1.6 0.00 0.03 0.03 54 1012.9
20260502233656 21 205 0.0 1.6 0.00 0.03 0.03 55 1013.1
20260502233153 21 204 0.0 1.6 0.00 0.03 0.03 55 1013.1
20260502232649 21 205 1.6 1.6 0.00 0.03 0.03 54 1013.1
20260502232147 21 205 0.0 1.6 0.00 0.03 0.03 54 1013.2
20260502231643 21 205 1.6 1.6 0.00 0.03 0.03 54 1013.1
20260502231141 21 212 1.6 3.2 0.00 0.03 0.03 54 1013.3
20260502230640 21 223 1.6 1.6 0.00 0.03 0.03 55 1013.2
20260502230138 21 224 3.2 3.2 0.00 0.03 0.03 55 1013.5
20260502225633 21 224 0.0 1.6 0.00 0.03 0.03 56 1013.4
20260502225131 21 225 0.0 4.8 0.00 0.03 0.03 53 1013.7
20260502224626 21 222 0.0 1.6 0.00 0.03 0.03 53 1013.7
20260502224123 21 223 1.6 3.2 0.00 0.03 0.03 55 1013.7
20260502223621 21 206 0.0 1.6 0.00 0.03 0.03 54 1014.0
20260502223119 20 208 3.2 4.8 0.00 0.03 0.03 53 1013.7
20260502222616 21 191 0.0 1.6 0.00 0.03 0.03 53 1013.9
20260502222112 21 214 1.6 3.2 0.00 0.03 0.03 53 1014.0
20260502221608 21 224 1.6 4.8 0.00 0.03 0.03 52 1014.1
20260502221106 21 208 1.6 3.2 0.00 0.03 0.03 54 1014.2
20260502220602 20 177 1.6 1.6 0.00 0.03 0.03 54 1014.4
20260502220058 21 204 1.6 3.2 0.00 0.03 0.03 52 1014.2
20260502215555 21 203 1.6 3.2 0.00 0.03 0.03 51 1014.5
20260502215052 21 189 1.6 1.6 0.00 0.03 0.03 52 1014.4
20260502214549 21 205 0.0 1.6 0.00 0.03 0.03 54 1014.6
20260502214047 20 204 0.0 1.6 0.00 0.03 0.03 56 1014.6
20260502213543 20 203 1.6 1.6 0.00 0.03 0.03 56 1014.7
20260502213041 20 202 1.6 3.2 0.00 0.03 0.03 57 1014.7
20260502212540 19 198 3.2 3.2 0.00 0.03 0.03 59 1014.7
20260502212037 20 215 1.6 4.8 0.00 0.03 0.03 57 1014.8
20260502211532 20 196 3.2 3.2 0.00 0.03 0.03 57 1015.1
20260502211030 20 185 0.0 3.2 0.00 0.03 0.03 57 1015.1
20260502210527 20 196 1.6 3.2 0.00 0.03 0.03 56 1015.4
20260502210024 18 194 3.2 4.8 0.00 0.03 0.03 60 1015.2
20260502205520 17 200 1.6 3.2 0.00 0.03 0.03 61 1015.3
20260502205018 18 240 3.2 4.8 0.00 0.03 0.03 60 1015.6
20260502204514 17 211 1.6 1.6 0.00 0.03 0.03 61 1015.6
20260502204013 18 225 3.2 4.8 0.00 0.03 0.03 60 1015.6
20260502203509 18 220 1.6 3.2 0.00 0.03 0.03 61 1015.8
20260502203006 18 202 1.6 3.2 0.00 0.03 0.03 59 1015.7
20260502202502 18 203 1.6 3.2 0.00 0.03 0.03 61 1016.0
20260502202000 18 200 3.2 4.8 0.00 0.03 0.03 59 1016.0
20260502201456 19 215 1.6 3.2 0.00 0.03 0.03 58 1015.9
20260502200953 19 201 1.6 1.6 0.00 0.03 0.03 58 1016.0
20260502200449 18 205 0.0 3.2 0.00 0.03 0.03 61 1016.0
20260502195947 17 213 3.2 4.8 0.00 0.03 0.03 62 1016.2
20260502195444 17 177 0.0 1.6 0.00 0.03 0.03 65 1016.1
20260502194939 16 195 1.6 3.2 0.00 0.03 0.03 66 1016.1
20260502194437 17 200 3.2 4.8 0.00 0.03 0.03 64 1016.1
20260502193932 16 199 0.0 3.2 0.00 0.03 0.03 67 1016.3
20260502193430 16 190 1.6 3.2 0.00 0.03 0.03 68 1016.4
20260502192925 15 179 1.6 3.2 0.00 0.03 0.03 69 1016.1
20260502192423 15 227 3.2 4.8 0.00 0.03 0.03 68 1016.3
20260502191919 15 219 0.0 0.0 0.00 0.03 0.03 70 1016.6
20260502191418 15 204 0.0 1.6 0.00 0.03 0.03 71 1016.6
20260502190915 15 204 0.0 1.6 0.00 0.03 0.03 70 1017.1
20260502190412 14 200 1.6 3.2 0.00 0.03 0.03 73 1017.2
20260502185908 14 221 0.0 4.8 0.00 0.03 0.03 73 1017.0
20260502185403 13 168 0.0 3.2 0.00 0.03 0.03 74 1017.2